| time (UTC) | temp F | wind direction | speed MPH | gust MPH | rain 1hr in | rain 24hr in | rain mn in | humidity % | barometer mb |
| 20260901231504 | 73 | 323 | 3.0 | 5.0 | 0.00 | 0.00 | 0.00 | 84 | 1013.2 |
| 20260901231343 | 74 | 322 | 3.0 | 5.0 | 0.00 | 0.00 | 0.00 | 84 | 1016.9 |
| 20260901230443 | 74 | 331 | 3.0 | 6.0 | 0.00 | 0.00 | 0.00 | 83 | 1017.1 |
| 20260901225543 | 75 | 345 | 2.0 | 5.0 | 0.00 | 0.00 | 0.00 | 80 | 1017.4 |
| 20260901224643 | 76 | 349 | 2.0 | 3.0 | 0.00 | 0.00 | 0.00 | 79 | 1017.3 |
| 20260901224503 | 76 | 333 | 1.0 | 3.0 | 0.00 | 0.00 | 0.00 | 79 | 1013.8 |
| 20260901223743 | 77 | 342 | 2.0 | 3.0 | 0.00 | 0.00 | 0.00 | 78 | 1017.5 |
| 20260901223103 | 78 | 312 | 1.0 | 3.0 | 0.00 | 0.00 | 0.00 | 78 | 1013.9 |
| 20260901222843 | 78 | 28 | 0.0 | 2.0 | 0.00 | 0.00 | 0.00 | 78 | 1017.3 |
| 20260901221943 | 79 | 8 | 2.0 | 4.0 | 0.00 | 0.00 | 0.00 | 78 | 1017.3 |
| 20260901221502 | 79 | 19 | 1.0 | 3.0 | 0.00 | 0.00 | 0.00 | 78 | 1013.9 |
| 20260901220143 | 81 | 355 | 4.0 | 10.0 | 0.00 | 0.00 | 0.00 | 74 | 1017.5 |
| 20260901220117 | 81 | 324 | 3.0 | 9.0 | 0.00 | 0.00 | 0.00 | 74 | 1013.9 |
| 20260901214503 | 82 | 93 | 2.0 | 8.0 | 0.00 | 0.00 | 0.00 | 73 | 1013.4 |
| 20260901214343 | 83 | 35 | 2.0 | 8.0 | 0.00 | 0.00 | 0.00 | 73 | 1016.8 |
| 20260901213443 | 84 | 15 | 3.0 | 8.0 | 0.00 | 0.00 | 0.00 | 71 | 1016.8 |
| 20260901213107 | 84 | 19 | 1.0 | 7.0 | 0.00 | 0.00 | 0.00 | 71 | 1013.3 |
| 20260901212543 | 84 | 15 | 2.0 | 8.0 | 0.00 | 0.00 | 0.00 | 71 | 1016.8 |
| 20260901211643 | 84 | 16 | 2.0 | 5.0 | 0.00 | 0.00 | 0.00 | 71 | 1016.7 |
| 20260901211502 | 84 | 72 | 2.0 | 5.0 | 0.00 | 0.00 | 0.00 | 70 | 1013.2 |
| 20260901210743 | 85 | 19 | 3.0 | 6.0 | 0.00 | 0.00 | 0.00 | 70 | 1016.9 |
| 20260901205843 | 85 | 1 | 3.0 | 7.0 | 0.00 | 0.00 | 0.00 | 71 | 1016.7 |
| 20260901204943 | 84 | 7 | 3.0 | 6.0 | 0.00 | 0.00 | 0.00 | 72 | 1016.9 |
| 20260901204505 | 84 | 25 | 2.0 | 7.0 | 0.00 | 0.00 | 0.00 | 70 | 1013.3 |
| 20260901204043 | 84 | 13 | 3.0 | 8.0 | 0.00 | 0.00 | 0.00 | 69 | 1016.9 |
| 20260901203143 | 83 | 9 | 3.0 | 5.0 | 0.00 | 0.00 | 0.00 | 72 | 1017.0 |
| 20260901203102 | 83 | 336 | 2.0 | 5.0 | 0.00 | 0.00 | 0.00 | 71 | 1013.5 |
| 20260901202243 | 83 | 13 | 2.0 | 6.0 | 0.00 | 0.00 | 0.00 | 72 | 1017.1 |
| 20260901201502 | 83 | 33 | 2.0 | 4.0 | 0.00 | 0.00 | 0.00 | 72 | 1013.7 |
| 20260901201343 | 83 | 18 | 2.0 | 4.0 | 0.00 | 0.00 | 0.00 | 73 | 1017.2 |
| 20260901200443 | 83 | 14 | 3.0 | 7.0 | 0.00 | 0.00 | 0.00 | 73 | 1017.1 |
| 20260901195543 | 84 | 9 | 3.0 | 9.0 | 0.00 | 0.00 | 0.00 | 71 | 1017.1 |
| 20260901194502 | 84 | 8 | 2.0 | 6.0 | 0.00 | 0.00 | 0.00 | 70 | 1013.8 |
| 20260901193752 | 84 | 18 | 2.0 | 7.0 | 0.00 | 0.00 | 0.00 | 73 | 1017.2 |
| 20260901193104 | 83 | 4 | 2.0 | 6.0 | 0.00 | 0.00 | 0.00 | 72 | 1013.9 |
| 20260901192843 | 83 | 18 | 2.0 | 7.0 | 0.00 | 0.00 | 0.00 | 72 | 1017.3 |
| 20260901191503 | 83 | 41 | 1.0 | 4.0 | 0.00 | 0.00 | 0.00 | 72 | 1013.9 |
| 20260901191043 | 83 | 27 | 2.0 | 5.0 | 0.00 | 0.00 | 0.00 | 74 | 1017.3 |
| 20260901185243 | 83 | 19 | 2.0 | 5.0 | 0.00 | 0.00 | 0.00 | 73 | 1017.4 |
| 20260901184502 | 83 | 222 | 2.0 | 8.0 | 0.00 | 0.00 | 0.00 | 74 | 1014.1 |
| 20260901184342 | 83 | 13 | 3.0 | 9.0 | 0.00 | 0.00 | 0.00 | 76 | 1017.4 |
| 20260901183442 | 83 | 21 | 2.0 | 5.0 | 0.00 | 0.00 | 0.00 | 74 | 1017.6 |
| 20260901183104 | 82 | 61 | 1.0 | 4.0 | 0.00 | 0.00 | 0.00 | 76 | 1014.3 |
| 20260901182543 | 82 | 7 | 2.0 | 5.0 | 0.00 | 0.00 | 0.00 | 76 | 1017.5 |
| 20260901181643 | 83 | 26 | 3.0 | 7.0 | 0.00 | 0.00 | 0.00 | 75 | 1017.6 |
| 20260901181503 | 82 | 72 | 3.0 | 9.0 | 0.00 | 0.00 | 0.00 | 74 | 1014.2 |
| 20260901180105 | 81 | 249 | 0.0 | 4.0 | 0.00 | 0.00 | 0.00 | 78 | 1014.2 |
| 20260901175842 | 81 | 17 | 1.0 | 5.0 | 0.00 | 0.00 | 0.00 | 78 | 1017.4 |
| 20260901174503 | 80 | 347 | 0.0 | 3.0 | 0.00 | 0.00 | 0.00 | 82 | 1014.3 |
| 20260901173143 | 80 | 13 | 2.0 | 9.0 | 0.00 | 0.00 | 0.00 | 80 | 1017.4 |
| 20260901173104 | 80 | 25 | 2.0 | 8.0 | 0.00 | 0.00 | 0.00 | 80 | 1014.2 |
| 20260901172243 | 81 | 13 | 2.0 | 7.0 | 0.00 | 0.00 | 0.00 | 80 | 1017.2 |
| 20260901171502 | 80 | 8 | 2.0 | 5.0 | 0.00 | 0.00 | 0.00 | 80 | 1014.0 |
| 20260901171343 | 81 | 31 | 1.0 | 5.0 | 0.00 | 0.00 | 0.00 | 80 | 1017.2 |
| 20260901170443 | 80 | 12 | 2.0 | 8.0 | 0.00 | 0.00 | 0.00 | 80 | 1017.2 |
| 20260901165542 | 80 | 24 | 2.0 | 8.0 | 0.00 | 0.00 | 0.00 | 82 | 1017.2 |
| 20260901164643 | 79 | 23 | 3.0 | 6.0 | 0.00 | 0.00 | 0.00 | 83 | 1017.1 |
| 20260901164505 | 78 | 141 | 2.0 | 6.0 | 0.00 | 0.00 | 0.00 | 83 | 1014.1 |
| 20260901163109 | 78 | 25 | 1.0 | 6.0 | 0.00 | 0.00 | 0.00 | 85 | 1014.1 |
| 20260901162843 | 78 | 11 | 3.0 | 7.0 | 0.00 | 0.00 | 0.00 | 85 | 1017.2 |
| 20260901161942 | 78 | 18 | 3.0 | 10.0 | 0.00 | 0.00 | 0.00 | 84 | 1017.3 |
| 20260901161502 | 78 | 347 | 3.0 | 11.0 | 0.00 | 0.00 | 0.00 | 84 | 1014.2 |
| 20260901161043 | 78 | 36 | 2.0 | 7.0 | 0.00 | 0.00 | 0.00 | 85 | 1017.3 |
| 20260901160143 | 77 | 51 | 2.0 | 6.0 | 0.00 | 0.00 | 0.00 | 86 | 1017.4 |
| 20260901160111 | 77 | 8 | 2.0 | 3.0 | 0.00 | 0.00 | 0.00 | 86 | 1014.3 |
| 20260901155243 | 77 | 34 | 2.0 | 7.0 | 0.00 | 0.01 | 0.00 | 87 | 1017.3 |
| 20260901154503 | 76 | 29 | 2.0 | 7.0 | 0.00 | 0.14 | 0.00 | 87 | 1014.5 |
| 20260901154342 | 77 | 24 | 2.0 | 7.0 | 0.00 | 0.06 | 0.00 | 87 | 1017.5 |
| 20260901153443 | 77 | 28 | 2.0 | 7.0 | 0.00 | 0.12 | 0.00 | 87 | 1017.5 |
| 20260901153103 | 76 | 82 | 2.0 | 6.0 | 0.00 | 0.14 | 0.00 | 86 | 1014.4 |
| 20260901152543 | 76 | 37 | 2.0 | 7.0 | 0.00 | 0.12 | 0.00 | 88 | 1017.4 |
| 20260901151643 | 76 | 16 | 2.0 | 5.0 | 0.00 | 0.13 | 0.00 | 89 | 1017.4 |
| 20260901151503 | 75 | 328 | 1.0 | 4.0 | 0.00 | 0.14 | 0.00 | 89 | 1014.5 |
| 20260901150743 | 75 | 50 | 1.0 | 5.0 | 0.00 | 0.14 | 0.00 | 89 | 1017.6 |
| 20260901145843 | 75 | 53 | 2.0 | 7.0 | 0.00 | 0.14 | 0.00 | 90 | 1017.6 |
| 20260901144943 | 74 | 18 | 2.0 | 10.0 | 0.00 | 0.14 | 0.00 | 90 | 1017.6 |
| 20260901144502 | 74 | 61 | 2.0 | 9.0 | 0.00 | 0.18 | 0.00 | 90 | 1014.7 |
| 20260901143142 | 74 | 37 | 3.0 | 8.0 | 0.00 | 0.17 | 0.00 | 91 | 1017.5 |
| 20260901143103 | 73 | 46 | 2.0 | 7.0 | 0.00 | 0.18 | 0.00 | 91 | 1014.7 |
| 20260901142242 | 73 | 34 | 2.0 | 10.0 | 0.00 | 0.17 | 0.00 | 92 | 1017.4 |
| 20260901141502 | 72 | 39 | 1.0 | 7.0 | 0.00 | 0.18 | 0.00 | 93 | 1014.6 |
| 20260901141342 | 73 | 69 | 2.0 | 7.0 | 0.00 | 0.17 | 0.00 | 93 | 1017.3 |
| 20260901140442 | 72 | 85 | 1.0 | 4.0 | 0.00 | 0.17 | 0.00 | 94 | 1017.5 |
| 20260901140108 | 71 | 78 | 1.0 | 8.0 | 0.00 | 0.18 | 0.00 | 95 | 1014.7 |
| 20260901135542 | 72 | 124 | 1.0 | 8.0 | 0.00 | 0.18 | 0.00 | 95 | 1017.6 |
| 20260901134642 | 72 | 106 | 1.0 | 5.0 | 0.00 | 0.18 | 0.00 | 95 | 1017.5 |
| 20260901134502 | 71 | 80 | 1.0 | 4.0 | 0.00 | 0.19 | 0.00 | 95 | 1014.7 |
| 20260901133742 | 71 | 95 | 0.0 | 2.0 | 0.00 | 0.18 | 0.00 | 96 | 1017.6 |
| 20260901133102 | 70 | 179 | 0.0 | 3.0 | 0.00 | 0.19 | 0.00 | 97 | 1014.9 |
| 20260901132842 | 71 | 78 | 1.0 | 4.0 | 0.00 | 0.19 | 0.00 | 97 | 1017.7 |
| 20260901131942 | 70 | 82 | 0.0 | 3.0 | 0.00 | 0.19 | 0.00 | 98 | 1017.8 |
| 20260901131504 | 69 | 71 | 0.0 | 2.0 | 0.00 | 0.19 | 0.00 | 98 | 1015.0 |
| 20260901131042 | 69 | 76 | 1.0 | 3.0 | 0.00 | 0.19 | 0.00 | 98 | 1017.9 |
| 20260901130143 | 69 | 74 | 0.0 | 2.0 | 0.00 | 0.19 | 0.00 | 99 | 1018.0 |
| 20260901130105 | 68 | 61 | 0.0 | 2.0 | 0.00 | 0.19 | 0.00 | 99 | 1015.2 |
| 20260901125242 | 69 | 87 | 0.0 | 3.0 | 0.00 | 0.19 | 0.00 | 99 | 1018.0 |
| 20260901124506 | 68 | 77 | 0.0 | 0.0 | 0.00 | 0.19 | 0.00 | 99 | 1015.4 |
| 20260901124342 | 68 | 0 | 0.0 | 0.0 | 0.00 | 0.19 | 0.00 | 99 | 1018.0 |
| 20260901123442 | 68 | 0 | 0.0 | 0.0 | 0.00 | 0.19 | 0.00 | 99 | 1018.2 |
| 20260901123102 | 67 | 77 | 0.0 | 0.0 | 0.00 | 0.19 | 0.00 | 99 | 1015.6 |
| 20260901122543 | 68 | 69 | 0.0 | 2.0 | 0.00 | 0.19 | 0.00 | 99 | 1018.3 |
| 20260901121642 | 68 | 88 | 0.0 | 3.0 | 0.00 | 0.19 | 0.00 | 99 | 1018.3 |
| 20260901121503 | 67 | 95 | 0.0 | 2.0 | 0.00 | 0.19 | 0.00 | 99 | 1015.6 |
| 20260901115842 | 68 | 74 | 0.0 | 1.0 | 0.00 | 0.19 | 0.00 | 99 | 1018.2 |
| 20260901114942 | 68 | 73 | 0.0 | 2.0 | 0.00 | 0.19 | 0.00 | 99 | 1018.1 |
| 20260901114503 | 67 | 74 | 0.0 | 2.0 | 0.00 | 0.19 | 0.00 | 99 | 1015.5 |
| 20260901114042 | 68 | 47 | 0.0 | 2.0 | 0.00 | 0.19 | 0.00 | 99 | 1018.1 |
| 20260901113142 | 68 | 59 | 0.0 | 2.0 | 0.00 | 0.19 | 0.00 | 99 | 1018.2 |
| 20260901113104 | 68 | 33 | 0.0 | 2.0 | 0.00 | 0.19 | 0.00 | 99 | 1015.6 |
| 20260901112242 | 68 | 89 | 0.0 | 2.0 | 0.00 | 0.19 | 0.00 | 99 | 1018.2 |
| 20260901111503 | 68 | 89 | 0.0 | 1.0 | 0.00 | 0.19 | 0.00 | 99 | 1015.5 |
| 20260901111342 | 68 | 90 | 0.0 | 1.0 | 0.00 | 0.19 | 0.00 | 99 | 1018.2 |
| 20260901110442 | 68 | 129 | 0.0 | 1.0 | 0.00 | 0.19 | 0.00 | 99 | 1018.0 |
| 20260901104503 | 67 | 130 | 0.0 | 3.0 | 0.00 | 0.19 | 0.00 | 99 | 1015.4 |
| 20260901103742 | 68 | 89 | 0.0 | 3.0 | 0.00 | 0.19 | 0.00 | 99 | 1018.1 |
| 20260901103106 | 67 | 95 | 0.0 | 1.0 | 0.00 | 0.19 | 0.00 | 99 | 1015.5 |
| 20260901101942 | 68 | 154 | 0.0 | 1.0 | 0.00 | 0.19 | 0.00 | 99 | 1018.0 |
| 20260901101506 | 67 | 78 | 0.0 | 0.0 | 0.00 | 0.19 | 0.00 | 99 | 1015.4 |
| 20260901101042 | 68 | 0 | 0.0 | 0.0 | 0.00 | 0.19 | 0.00 | 99 | 1017.8 |
| 20260901100142 | 68 | 0 | 0.0 | 0.0 | 0.00 | 0.19 | 0.00 | 99 | 1017.9 |
| 20260901100106 | 67 | 88 | 0.0 | 0.0 | 0.00 | 0.19 | 0.00 | 99 | 1015.4 |
| 20260901095242 | 68 | 0 | 0.0 | 0.0 | 0.00 | 0.19 | 0.00 | 99 | 1017.9 |
| 20260901094503 | 67 | 121 | 0.0 | 1.0 | 0.00 | 0.19 | 0.00 | 99 | 1015.5 |
| 20260901094342 | 67 | 201 | 0.0 | 1.0 | 0.00 | 0.19 | 0.00 | 99 | 1018.0 |
| 20260901093442 | 67 | 218 | 0.0 | 1.0 | 0.00 | 0.19 | 0.00 | 99 | 1018.1 |
| 20260901093104 | 67 | 134 | 0.0 | 0.0 | 0.00 | 0.19 | 0.00 | 99 | 1015.6 |
| 20260901092542 | 67 | 0 | 0.0 | 0.0 | 0.00 | 0.19 | 0.00 | 99 | 1018.1 |
| 20260901091642 | 67 | 0 | 0.0 | 0.0 | 0.00 | 0.19 | 0.00 | 99 | 1018.2 |
| 20260901091502 | 67 | 134 | 0.0 | 0.0 | 0.00 | 0.19 | 0.00 | 99 | 1015.6 |
| 20260901090742 | 67 | 0 | 0.0 | 0.0 | 0.00 | 0.19 | 0.00 | 99 | 1018.0 |
| 20260901085842 | 67 | 0 | 0.0 | 0.0 | 0.00 | 0.19 | 0.00 | 99 | 1018.1 |
| 20260901084942 | 67 | 0 | 0.0 | 0.0 | 0.00 | 0.19 | 0.00 | 99 | 1018.3 |
| 20260901084503 | 67 | 139 | 0.0 | 0.0 | 0.00 | 0.19 | 0.00 | 99 | 1015.8 |
| 20260901084042 | 67 | 0 | 0.0 | 0.0 | 0.00 | 0.19 | 0.00 | 99 | 1018.3 |
| 20260901083142 | 67 | 0 | 0.0 | 0.0 | 0.00 | 0.19 | 0.00 | 99 | 1018.3 |
| 20260901083103 | 67 | 138 | 0.0 | 0.0 | 0.00 | 0.19 | 0.00 | 99 | 1015.8 |
| 20260901082242 | 67 | 0 | 0.0 | 0.0 | 0.00 | 0.19 | 0.00 | 99 | 1018.3 |
| 20260901081508 | 67 | 139 | 0.0 | 0.0 | 0.00 | 0.19 | 0.00 | 99 | 1016.0 |
| 20260901081342 | 67 | 0 | 0.0 | 0.0 | 0.00 | 0.19 | 0.00 | 99 | 1018.4 |
| 20260901080442 | 67 | 0 | 0.0 | 0.0 | 0.00 | 0.19 | 0.00 | 99 | 1018.4 |
| 20260901080107 | 67 | 139 | 0.0 | 0.0 | 0.00 | 0.19 | 0.00 | 99 | 1015.8 |
| 20260901075542 | 67 | 0 | 0.0 | 0.0 | 0.00 | 0.19 | 0.00 | 99 | 1018.3 |
| 20260901074642 | 67 | 0 | 0.0 | 0.0 | 0.00 | 0.19 | 0.00 | 99 | 1018.3 |
| 20260901074502 | 67 | 125 | 0.0 | 0.0 | 0.00 | 0.19 | 0.00 | 99 | 1016.0 |
| 20260901073104 | 66 | 125 | 0.0 | 0.0 | 0.00 | 0.19 | 0.00 | 99 | 1016.3 |
| 20260901072842 | 67 | 0 | 0.0 | 0.0 | 0.00 | 0.19 | 0.00 | 99 | 1018.5 |
| 20260901071942 | 67 | 0 | 0.0 | 0.0 | 0.00 | 0.19 | 0.00 | 99 | 1018.4 |
| 20260901071502 | 66 | 125 | 0.0 | 0.0 | 0.00 | 0.19 | 0.00 | 99 | 1016.1 |
| 20260901070142 | 67 | 0 | 0.0 | 0.0 | 0.00 | 0.19 | 0.00 | 99 | 1018.7 |
| 20260901070114 | 66 | 125 | 0.0 | 0.0 | 0.00 | 0.19 | 0.00 | 99 | 1016.4 |
| 20260901065242 | 67 | 0 | 0.0 | 0.0 | 0.00 | 0.19 | 0.00 | 99 | 1018.8 |
| 20260901064506 | 67 | 125 | 0.0 | 0.0 | 0.00 | 0.19 | 0.00 | 99 | 1016.5 |
| 20260901064342 | 67 | 0 | 0.0 | 0.0 | 0.00 | 0.19 | 0.00 | 99 | 1018.8 |
| 20260901063442 | 67 | 0 | 0.0 | 0.0 | 0.00 | 0.19 | 0.00 | 99 | 1018.9 |
| 20260901063102 | 67 | 126 | 0.0 | 0.0 | 0.00 | 0.19 | 0.00 | 99 | 1016.6 |
| 20260901061642 | 67 | 0 | 0.0 | 0.0 | 0.00 | 0.19 | 0.00 | 99 | 1018.9 |
| 20260901061503 | 67 | 125 | 0.0 | 0.0 | 0.00 | 0.19 | 0.00 | 99 | 1016.6 |
| 20260901060742 | 67 | 0 | 0.0 | 0.0 | 0.00 | 0.19 | 0.00 | 99 | 1019.0 |
| 20260901055842 | 67 | 0 | 0.0 | 0.0 | 0.00 | 0.19 | 0.00 | 99 | 1019.2 |
| 20260901054942 | 67 | 0 | 0.0 | 0.0 | 0.00 | 0.19 | 0.00 | 99 | 1019.3 |
| 20260901054504 | 66 | 125 | 0.0 | 0.0 | 0.00 | 0.19 | 0.00 | 99 | 1016.9 |
| 20260901054042 | 67 | 0 | 0.0 | 0.0 | 0.00 | 0.19 | 0.00 | 99 | 1019.3 |
| 20260901053142 | 66 | 0 | 0.0 | 0.0 | 0.00 | 0.19 | 0.00 | 99 | 1019.3 |
| 20260901053107 | 66 | 126 | 0.0 | 0.0 | 0.00 | 0.19 | 0.00 | 98 | 1016.9 |
| 20260901052242 | 66 | 0 | 0.0 | 0.0 | 0.00 | 0.19 | 0.00 | 98 | 1019.4 |
| 20260901051503 | 66 | 125 | 0.0 | 0.0 | 0.00 | 0.19 | 0.00 | 98 | 1017.0 |
| 20260901051342 | 66 | 0 | 0.0 | 0.0 | 0.00 | 0.19 | 0.00 | 98 | 1019.4 |
| 20260901045542 | 67 | 0 | 0.0 | 0.0 | 0.00 | 0.19 | 0.00 | 98 | 1019.5 |
| 20260901044642 | 67 | 0 | 0.0 | 0.0 | 0.00 | 0.19 | 0.00 | 98 | 1019.4 |
| 20260901044507 | 66 | 126 | 0.0 | 0.0 | 0.00 | 0.19 | 0.00 | 98 | 1017.0 |
| 20260901043742 | 67 | 0 | 0.0 | 0.0 | 0.00 | 0.19 | 0.00 | 98 | 1019.3 |
| 20260901043106 | 67 | 126 | 0.0 | 0.0 | 0.00 | 0.19 | 0.00 | 98 | 1017.0 |
| 20260901042842 | 67 | 0 | 0.0 | 0.0 | 0.00 | 0.19 | 0.00 | 98 | 1019.3 |
| 20260901041942 | 67 | 0 | 0.0 | 0.0 | 0.00 | 0.19 | 0.00 | 98 | 1019.4 |
| 20260901041508 | 66 | 125 | 0.0 | 0.0 | 0.00 | 0.19 | 0.00 | 98 | 1017.0 |
| 20260901041042 | 67 | 0 | 0.0 | 0.0 | 0.00 | 0.19 | 0.00 | 98 | 1019.4 |
| 20260901040103 | 66 | 125 | 0.0 | 0.0 | 0.00 | 0.19 | 0.00 | 97 | 1017.0 |
| 20260901034503 | 67 | 126 | 0.0 | 0.0 | 0.00 | 0.19 | 0.19 | 97 | 1017.1 |
| 20260901034342 | 67 | 0 | 0.0 | 0.0 | 0.00 | 0.19 | 0.19 | 97 | 1019.5 |
| 20260901033442 | 67 | 0 | 0.0 | 0.0 | 0.00 | 0.19 | 0.19 | 97 | 1019.6 |
| 20260901033119 | 67 | 125 | 0.0 | 0.0 | 0.00 | 0.19 | 0.19 | 97 | 1017.3 |
| 20260901032542 | 67 | 0 | 0.0 | 0.0 | 0.00 | 0.19 | 0.19 | 97 | 1019.6 |
| 20260901031642 | 67 | 0 | 0.0 | 0.0 | 0.00 | 0.19 | 0.19 | 97 | 1019.6 |
| 20260901031503 | 67 | 125 | 0.0 | 0.0 | 0.00 | 0.19 | 0.19 | 97 | 1017.3 |
| 20260901030107 | 67 | 126 | 0.0 | 0.0 | 0.00 | 0.19 | 0.19 | 96 | 1017.3 |
| 20260901025842 | 68 | 0 | 0.0 | 0.0 | 0.00 | 0.19 | 0.19 | 96 | 1019.7 |
| 20260901024942 | 68 | 0 | 0.0 | 0.0 | 0.00 | 0.19 | 0.19 | 96 | 1019.7 |
| 20260901024503 | 67 | 125 | 0.0 | 0.0 | 0.00 | 0.19 | 0.19 | 96 | 1017.4 |
| 20260901024042 | 68 | 0 | 0.0 | 0.0 | 0.00 | 0.19 | 0.19 | 96 | 1019.8 |
| 20260901023142 | 68 | 0 | 0.0 | 0.0 | 0.00 | 0.19 | 0.19 | 96 | 1019.9 |
| 20260901023102 | 68 | 126 | 0.0 | 0.0 | 0.00 | 0.19 | 0.19 | 96 | 1017.5 |
| 20260901022242 | 68 | 0 | 0.0 | 0.0 | 0.00 | 0.19 | 0.19 | 96 | 1019.9 |
| 20260901021506 | 68 | 125 | 0.0 | 0.0 | 0.00 | 0.19 | 0.19 | 96 | 1017.5 |
| 20260901021342 | 68 | 0 | 0.0 | 0.0 | 0.00 | 0.19 | 0.19 | 96 | 1019.9 |
| 20260901020442 | 68 | 0 | 0.0 | 0.0 | 0.00 | 0.19 | 0.19 | 96 | 1020.0 |
| 20260901015542 | 69 | 0 | 0.0 | 0.0 | 0.00 | 0.19 | 0.19 | 96 | 1020.0 |
| 20260901014642 | 69 | 0 | 0.0 | 0.0 | 0.00 | 0.19 | 0.19 | 97 | 1020.0 |
| 20260901014503 | 68 | 125 | 0.0 | 0.0 | 0.00 | 0.19 | 0.19 | 97 | 1017.6 |
| 20260901013742 | 69 | 0 | 0.0 | 0.0 | 0.00 | 0.19 | 0.19 | 97 | 1020.2 |
| 20260901013115 | 69 | 125 | 0.0 | 1.0 | 0.00 | 0.19 | 0.19 | 97 | 1017.7 |
| 20260901012842 | 69 | 90 | 0.0 | 1.0 | 0.00 | 0.19 | 0.19 | 97 | 1020.1 |
| 20260901011942 | 69 | 82 | 0.0 | 2.0 | 0.00 | 0.19 | 0.19 | 97 | 1020.1 |
| 20260901011504 | 69 | 77 | 0.0 | 1.0 | 0.00 | 0.19 | 0.19 | 98 | 1017.7 |
| 20260901011042 | 69 | 81 | 0.0 | 1.0 | 0.00 | 0.19 | 0.19 | 98 | 1020.1 |
| 20260901010142 | 69 | 0 | 0.0 | 0.0 | 0.00 | 0.19 | 0.19 | 98 | 1020.3 |
| 20260901005242 | 69 | 0 | 0.0 | 0.0 | 0.00 | 0.19 | 0.19 | 98 | 1020.4 |
| 20260901004502 | 69 | 167 | 0.0 | 0.0 | 0.00 | 0.19 | 0.19 | 98 | 1017.7 |
| 20260901004342 | 69 | 0 | 0.0 | 0.0 | 0.00 | 0.19 | 0.19 | 98 | 1020.1 |
| 20260901003442 | 69 | 0 | 0.0 | 0.0 | 0.00 | 0.19 | 0.19 | 97 | 1020.0 |
| 20260901003103 | 69 | 167 | 0.0 | 0.0 | 0.00 | 0.19 | 0.19 | 97 | 1017.5 |
| 20260901002542 | 69 | 0 | 0.0 | 0.0 | 0.00 | 0.19 | 0.19 | 97 | 1019.8 |
| 20260901001642 | 69 | 0 | 0.0 | 0.0 | 0.00 | 0.19 | 0.19 | 97 | 1019.5 |
| 20260901001505 | 69 | 167 | 0.0 | 0.0 | 0.00 | 0.19 | 0.19 | 97 | 1017.1 |
| 20260901000742 | 69 | 0 | 0.0 | 0.0 | 0.00 | 0.19 | 0.19 | 97 | 1019.5 |
| 20260831235842 | 69 | 0 | 0.0 | 0.0 | 0.00 | 0.19 | 0.19 | 96 | 1019.5 |
| 20260831234942 | 70 | 0 | 0.0 | 0.0 | 0.00 | 0.19 | 0.19 | 96 | 1019.4 |
| 20260831234503 | 69 | 167 | 0.0 | 0.0 | 0.00 | 0.19 | 0.19 | 95 | 1017.1 |
| 20260831234042 | 70 | 0 | 0.0 | 0.0 | 0.00 | 0.19 | 0.19 | 95 | 1019.3 |
| 20260831233142 | 70 | 0 | 0.0 | 0.0 | 0.00 | 0.19 | 0.19 | 95 | 1019.3 |
| 20260831233106 | 70 | 166 | 0.0 | 0.0 | 0.00 | 0.19 | 0.19 | 95 | 1016.9 |
| 20260831232242 | 71 | 0 | 0.0 | 0.0 | 0.00 | 0.19 | 0.19 | 94 | 1019.3 |